sat.trackr.live / text

‹ back to catalog

STARLINK-5268

NORAD 54192 · 2022-141AM

PAYLOAD ACTIVE UNKNOWN

§ Identity

Operator
Country
US
Launch date
2022-10-28
Launch site
AFWTR
Launch vehicle
Mass (kg)
RCS (m²)

Purposes: comms

External: N2YO · Heavens-Above · Gunter

§ Orbital elements

Epoch: 2026-05-25T00:15:32.574816Z

Period
95.44 min
Inclination
53.2146°
Eccentricity
0.0001467
Mean motion
15.08841847 rev/d
Perigee alt
538.7 km
Apogee alt
540.8 km
Semi-major
6,917.9 km
B*
6.0232e-5
RAAN
11.2255°
Arg perigee
85.2300°
Mean anomaly
274.8860°
Rev number
19,752

§ Raw data

STARLINK-52681 54192U 22141AM  26145.01079369  .00000671  00000+0  60232-4 0  99942 54192  53.2146  11.2255 0001467  85.2300 274.8860 15.08841847197521

JSON: /api/v1/satellites/54192 · /tle

For live sub-satellite position, see the globe view (requires WebGL).

§ Visibility from observer

Set your observer location to see the next 7 days of passes ≥ 10°. The values pass through the URL so the page stays shareable.

No JS? Fill the form by hand. The geolocation button needs JavaScript.